Voltar ao catálogo

ONEWEB-0353

AtivoComunicaçõesPO
NORAD 49282·PAYLOAD·🇬🇧 United Kingdom

Lançado Oct 14, 2021 de Vostochny Cosmodrome

Loading…

Próximas Passagens (próximas 24 horas)

TLE

AtualizadoSource: CelesTrak SupGP

Época: Sep 14, 2026, 23:05 UTC

1 49282C 21090D   26257.96198335  .00003458  00000+0  93376-2 0  2579
2 49282  87.8900 271.8021 0002115  87.2869 307.7975 13.14502238    17

Acompanhe ONEWEB-0353 em tempo real com AllMySat

Download on the App Store